datetime,area
1968-12-01,27066.21
1968-12-02,27030.12
1968-12-03,26998.45
1968-12-04,26969.1
1968-12-05,26939.74
1968-12-06,26908.07
1968-12-07,26878.72
1968-12-08,26849.26
1968-12-09,26813.17
1968-12-10,26779.29
1968-12-11,26749.83
1968-12-12,26715.95
1968-12-13,26688.8
1968-12-14,26657.24
1968-12-15,26627.78
1968-12-16,26596.22
1968-12-17,26571.28
1968-12-18,26544.13
1968-12-19,26548.77
1968-12-20,26512.57
1968-12-21,26456.07
1968-12-22,26426.72
1968-12-23,26395.05
1968-12-24,26358.85
1968-12-25,26324.98
1968-12-26,26295.62
1968-12-27,26275.21
1968-12-28,26257.22
1968-12-29,26250.38
1968-12-30,26227.76
1968-12-31,26202.93
1969-01-01,26184.83
1969-01-02,26160.0
1969-01-03,26135.17
1969-01-04,26105.71
1969-01-05,26096.66
1969-01-06,26074.15
1969-01-07,26047.0
1969-01-08,26017.65
1969-01-09,25988.29
1969-01-10,25961.15
1969-01-11,25931.79
1969-01-12,25900.12
1969-01-13,25872.98
1969-01-14,25852.67
1969-01-15,25830.05
1969-01-16,25796.06
1969-01-17,25755.45
1969-01-18,25701.27
1969-01-19,25658.23
1969-01-20,25615.3
1969-01-21,25567.85
1969-01-22,25518.2
1969-01-23,25468.43
1969-01-24,25418.66
1969-01-25,25375.73
1969-01-26,25319.23
1969-01-27,25269.57
1969-01-28,25217.6
1969-01-29,25170.04
1969-01-30,25127.11
1969-01-31,25079.66
1969-02-01,25036.73
1969-02-02,24984.97
1969-02-03,24937.22
1969-02-04,24897.5
1969-02-05,24855.06
1969-02-06,24804.72
1969-02-07,24765.0
1969-02-08,24725.28
1969-02-09,24674.81
1969-02-10,24635.09
1969-02-11,24605.97
1969-02-12,24560.94
1969-02-13,24531.7
1969-02-14,24497.28
1969-02-15,24446.95
1969-02-16,24404.51
1969-02-17,24364.78
1969-02-18,24322.47
1969-02-19,24266.7
1969-02-20,24221.67
1969-02-21,24171.34
1969-02-22,24118.42
1969-02-23,24060.06
1969-02-24,23993.81
1969-02-25,23961.98
1969-02-26,23922.25
1969-02-27,23877.22
1969-02-28,23824.17
1969-03-01,23776.56
1969-03-02,23726.22
1969-03-03,23681.06
1969-03-04,23633.44
1969-03-05,23585.7
1969-03-06,23537.95
1969-03-07,23498.23
1969-03-08,23450.61
1969-03-09,23405.45
1969-03-10,23357.83
1969-03-11,23307.5
1969-03-12,23251.86
1969-03-13,23206.7
1969-03-14,23169.69
1969-03-15,23161.67
1969-03-16,23151.06
1969-03-17,23151.06
1969-03-18,23151.06
1969-03-19,23153.78
1969-03-20,23159.08
1969-03-21,23161.67
1969-03-22,23164.39
1969-03-23,23169.69
1969-03-24,23172.28
1969-03-25,23169.69
1969-03-26,23164.39
1969-03-27,23175.0
1969-03-28,23175.0
1969-03-29,23196.22
1969-03-30,23222.62
1969-03-31,23299.48
1969-04-01,23373.75
1969-04-02,23413.47
1969-04-03,23410.76
1969-04-04,23397.56
1969-04-05,23376.34
1969-04-06,23355.12
1969-04-07,23339.2
1969-04-08,23315.39
1969-04-09,23302.19
1969-04-10,23312.81
1969-04-11,23331.31
1969-04-12,23349.81
1969-04-13,23384.36
1969-04-14,23402.86
1969-04-15,23447.89
1969-04-16,23447.89
1969-04-17,23458.5
1969-04-18,23516.86
1969-04-19,23551.28
1969-04-20,23606.92
1969-04-21,23620.12
1969-04-22,23678.47
1969-04-23,23723.5
1969-04-24,23779.14
1969-04-25,23879.81
1969-04-26,23967.28
1969-04-27,24049.45
1969-04-28,24134.2
1969-04-29,24211.06
1969-04-30,24301.25
1969-05-01,24343.56
1969-05-02,24383.42
1969-05-03,24420.42
1969-05-04,24476.06
1969-05-05,24518.5
1969-05-06,24560.94
1969-05-07,24571.56
1969-05-08,24600.67
1969-05-09,24627.19
1969-05-10,24643.11
1969-05-11,24717.25
1969-05-12,24759.69
1969-05-13,24794.11
1969-05-14,24812.62
1969-05-15,24849.75
1969-05-16,24886.89
1969-05-17,24929.2
1969-05-18,24971.64
1969-05-19,24990.28
1969-05-20,25030.0
1969-05-21,25054.83
1969-05-22,25088.71
1969-05-23,25136.16
1969-05-24,25185.93
1969-05-25,25240.11
1969-05-26,25278.62
1969-05-27,25307.98
1969-05-28,25314.71
1969-05-29,25307.98
1969-05-30,25312.5
1969-05-31,25346.38
1969-06-01,25378.05
1969-06-02,25380.26
1969-06-03,25434.55
1969-06-04,25472.95
1969-06-05,25511.35
1969-06-06,25556.6
1969-06-07,25606.26
1969-06-08,25646.98
1969-06-09,25687.58
1969-06-10,25732.83
1969-06-11,25825.52
1969-06-12,25992.71
1969-06-13,26171.26
1969-06-14,26311.4
1969-06-15,26460.6
1969-06-16,26632.3
1969-06-17,26747.62
1969-06-18,26835.68
1969-06-19,26894.5
1969-06-20,26973.62
1969-06-21,27007.5
1969-06-22,27039.06
1969-06-23,27052.63
1969-06-24,27050.43
1969-06-25,27052.63
1969-06-26,27104.61
1969-06-27,27120.5
1969-06-28,27165.63
1969-06-29,27204.04
1969-06-30,27235.71
1969-07-01,27276.43
1969-07-02,27297.8
1969-07-03,27305.74
1969-07-04,27308.29
1969-07-05,27300.49
1969-07-06,27321.34
1969-07-07,27313.54
1969-07-08,27283.16
1969-07-09,27290.0
1969-07-10,27274.11
1969-07-11,27258.33
1969-07-12,27242.55
1969-07-13,27224.45
1969-07-14,27208.56
1969-07-15,27190.57
1969-07-16,27174.68
1969-07-17,27161.11
1969-07-18,27149.85
1969-07-19,27145.33
1969-07-20,27152.06
1969-07-21,27165.63
1969-07-22,27179.21
1969-07-23,27186.05
1969-07-24,27192.78
1969-07-25,27201.83
1969-07-26,27210.88
1969-07-27,27217.61
1969-07-28,27213.08
1969-07-29,27228.98
1969-07-30,27222.13
1969-07-31,27208.56
1969-08-01,27197.3
1969-08-02,27156.58
1969-08-03,27131.76
1969-08-04,27102.4
1969-08-05,27091.04
1969-08-06,27050.43
1969-08-07,27005.18
1969-08-08,26962.26
1969-08-09,26917.12
1969-08-10,26883.13
1969-08-11,26847.05
1969-08-12,26801.8
1969-08-13,26756.56
1969-08-14,26706.9
1969-08-15,26682.07
1969-08-16,26668.5
1969-08-17,26650.4
1969-08-18,26634.62
1969-08-19,26609.68
1969-08-20,26587.17
1969-08-21,26564.55
1969-08-22,26544.13
1969-08-23,26519.3
1969-08-24,26499.0
1969-08-25,26474.06
1969-08-26,26451.55
1969-08-27,26431.13
1969-08-28,26415.35
1969-08-29,26401.78
1969-08-30,26386.0
1969-08-31,26361.06
1969-09-01,26338.55
1969-09-02,26311.4
1969-09-03,26277.52
1969-09-04,26243.54
1969-09-05,26196.08
1969-09-06,26155.48
1969-09-07,26117.07
1969-09-08,26083.08
1969-09-09,26056.05
1969-09-10,26033.43
1969-09-11,26006.28
1969-09-12,25983.66
1969-09-13,25963.35
1969-09-14,25936.21
1969-09-15,25913.58
1969-09-16,25886.55
1969-09-17,25863.93
1969-09-18,25836.78
1969-09-19,25800.7
1969-09-20,25780.28
1969-09-21,25762.18
1969-09-22,25737.35
1969-09-23,25698.95
1969-09-24,25662.76
1969-09-25,25626.56
1969-09-26,25590.48
1969-09-27,25554.28
1969-09-28,25527.13
1969-09-29,25479.68
1969-09-30,25448.12
1969-10-01,25411.93
1969-10-02,25387.1
1969-10-03,25373.52
1969-10-04,25369.0
1969-10-05,25364.48
1969-10-06,25341.85
1969-10-07,25321.55
1969-10-08,25303.45
1969-10-09,25296.72
1969-10-10,25296.61
1969-10-11,25260.52
1969-10-12,25219.8
1969-10-13,25192.66
1969-10-14,25172.35
1969-10-15,25172.35
1969-10-16,25181.4
1969-10-17,25208.55
1969-10-18,25224.33
1969-10-19,25233.38
1969-10-20,25231.06
1969-10-21,25226.54
1969-10-22,25228.85
1969-10-23,25215.28
1969-10-24,25204.02
1969-10-25,25183.61
1969-10-26,25176.88
1969-10-27,25165.62
1969-10-28,25154.26
1969-10-29,25124.9
1969-10-30,25106.8
1969-10-31,25097.76
1969-11-01,25086.5
1969-11-02,25084.18
1969-11-03,25063.88
1969-11-04,25050.3
1969-11-05,25032.21
1969-11-06,25006.19
1969-11-07,24990.28
1969-11-08,24963.75
1969-11-09,24958.44
1969-11-10,24931.92
1969-11-11,24913.42
1969-11-12,24878.87
1969-11-13,24844.45
1969-11-14,24810.03
1969-11-15,24791.53
1969-11-16,24778.2
1969-11-17,24743.78
1969-11-18,24701.34
1969-11-19,24664.33
1969-11-20,24613.87
1969-11-21,24590.06
1969-11-22,24579.45
1969-11-23,24563.53
1969-11-24,24523.81
1969-11-25,24489.39
1969-11-26,24454.97
1969-11-27,24436.34
1969-11-28,24396.61
1969-11-29,24356.89
1969-11-30,24319.75
1969-12-01,24274.72
1969-12-02,24226.98
1969-12-03,24181.95
1969-12-04,24139.51
1969-12-05,24078.69
1969-12-06,24033.66
1969-12-07,24004.42
1969-12-08,23946.19
1969-12-09,23879.94
1969-12-10,23818.87
1969-12-11,23757.92
1969-12-12,23707.59
1969-12-13,23649.36
1969-12-14,23604.2
1969-12-15,23551.28
1969-12-16,23487.75
1969-12-17,23426.8
1969-12-18,23363.14
1969-12-19,23312.81
1969-12-20,23262.47
1969-12-21,23212.01
1969-12-22,23151.19
1969-12-23,23100.86
1969-12-24,23034.61
1969-12-25,22973.66
1969-12-26,22907.41
1969-12-27,22849.06
1969-12-28,22777.5
1969-12-29,22727.17
1969-12-30,22690.03
1969-12-31,22634.39
1970-01-01,22605.28
1970-01-02,22560.25
1970-01-03,22528.42
1970-01-04,22501.89
1970-01-05,22464.75
1970-01-06,22427.75
1970-01-07,22390.61
1970-01-08,22356.7
1970-01-09,22327.62
1970-01-10,22312.08
1970-01-11,22290.77
1970-01-12,22261.59
1970-01-13,22240.28
1970-01-14,22217.07
1970-01-15,22199.55
1970-01-16,22189.88
1970-01-17,22187.89
1970-01-18,22184.11
1970-01-19,22176.34
1970-01-20,22164.59
1970-01-21,22156.92
1970-01-22,22156.92
1970-01-23,22156.92
1970-01-24,22162.7
1970-01-25,22162.7
1970-01-26,22162.7
1970-01-27,22162.7
1970-01-28,22166.58
1970-01-29,22149.15
1970-01-30,22141.38
1970-01-31,22135.61
1970-02-01,22133.62
1970-02-02,22133.62
1970-02-03,22127.84
1970-02-04,22125.85
1970-02-05,22125.85
1970-02-06,22123.86
1970-02-07,22121.96
1970-02-08,22121.96
1970-02-09,22110.31
1970-02-10,22096.77
1970-02-11,22081.23
1970-02-12,22071.48
1970-02-13,22069.58
1970-02-14,22063.71
1970-02-15,22063.71
1970-02-16,22050.16
1970-02-17,22046.28
1970-02-18,22026.86
1970-02-19,22009.43
1970-02-20,21997.78
1970-02-21,21992.0
1970-02-22,21984.23
1970-02-23,21964.81
1970-02-24,21953.16
1970-02-25,21929.86
1970-02-26,21914.42
1970-02-27,21896.89
1970-02-28,21879.46
1970-03-01,21873.59
1970-03-02,21873.59
1970-03-03,21873.59
1970-03-04,21871.7
1970-03-05,21871.7
1970-03-06,21863.93
1970-03-07,21863.93
1970-03-08,21867.81
1970-03-09,21850.38
1970-03-10,21838.73
1970-03-11,21819.31
1970-03-12,21809.65
1970-03-13,21807.66
1970-03-14,21803.78
1970-03-15,21807.66
1970-03-16,21801.88
1970-03-17,21803.78
1970-03-18,21792.13
1970-03-19,21784.36
1970-03-20,21780.48
1970-03-21,21782.46
1970-03-22,21776.59
1970-03-23,21788.24
1970-03-24,21801.88
1970-03-25,21813.54
1970-03-26,21821.21
1970-03-27,21828.98
1970-03-28,21832.86
1970-03-29,21852.28
1970-03-30,21856.16
1970-03-31,21862.04
1970-04-01,21862.04
1970-04-02,21858.15
1970-04-03,21848.39
1970-04-04,21852.28
1970-04-05,21883.35
1970-04-06,21875.58
1970-04-07,21906.65
1970-04-08,21904.66
1970-04-09,21914.42
1970-04-10,21918.21
1970-04-11,21937.63
1970-04-12,21945.39
1970-04-13,21941.61
1970-04-14,21929.95
1970-04-15,21910.54
1970-04-16,21902.77
1970-04-17,21906.65
1970-04-18,21898.88
1970-04-19,21887.23
1970-04-20,21852.28
1970-04-21,21832.86
1970-04-22,21819.31
1970-04-23,21813.54
1970-04-24,21805.77
1970-04-25,21817.42
1970-04-26,21823.2
1970-04-27,21807.66
1970-04-28,21811.55
1970-04-29,21803.78
1970-04-30,21792.13
1970-05-01,21786.35
1970-05-02,21798.0
1970-05-03,21805.77
1970-05-04,21811.55
1970-05-05,21823.2
1970-05-06,21828.98
1970-05-07,21854.27
1970-05-08,21854.27
1970-05-09,21862.04
1970-05-10,21885.34
1970-05-11,21908.55
1970-05-12,21920.2
1970-05-13,21935.73
1970-05-14,21949.28
1970-05-15,21949.28
1970-05-16,21964.81
1970-05-17,21982.24
1970-05-18,21990.01
1970-05-19,21986.13
1970-05-20,22009.43
1970-05-21,22057.93
1970-05-22,22112.21
1970-05-23,22166.58
1970-05-24,22220.86
1970-05-25,22283.0
1970-05-26,22339.27
1970-05-27,22409.11
1970-05-28,22499.17
1970-05-29,22599.97
1970-05-30,22708.53
1970-05-31,22806.61
1970-06-01,22907.28
1970-06-02,23018.56
1970-06-03,23129.97
1970-06-04,23249.14
1970-06-05,23357.83
1970-06-06,23450.61
1970-06-07,23545.97
1970-06-08,23649.36
1970-06-09,23771.25
1970-06-10,23903.75
1970-06-11,24219.08
1970-06-12,24287.92
1970-06-13,24425.73
1970-06-14,24563.53
1970-06-15,24696.03
1970-06-16,24807.31
1970-06-17,24897.5
1970-06-18,24969.06
1970-06-19,25041.26
1970-06-20,25095.55
1970-06-21,25138.48
1970-06-22,25210.76
1970-06-23,25249.16
1970-06-24,25301.13
1970-06-25,25344.06
1970-06-26,25384.78
1970-06-27,25427.71
1970-06-28,25459.38
1970-06-29,25491.05
1970-06-30,25533.98
1970-07-01,25563.33
1970-07-02,25583.63
1970-07-03,25604.05
1970-07-04,25622.04
1970-07-05,25651.5
1970-07-06,25703.48
1970-07-07,25726.1
1970-07-08,25753.13
1970-07-09,25773.55
1970-07-10,25807.43
1970-07-11,25827.73
1970-07-12,25841.3
1970-07-13,25866.13
1970-07-14,25872.98
1970-07-15,25872.98
1970-07-16,25884.23
1970-07-17,25863.93
1970-07-18,25859.4
1970-07-19,25848.15
1970-07-20,25848.04
1970-07-21,25852.56
1970-07-22,25848.15
1970-07-23,25845.83
1970-07-24,25830.05
1970-07-25,25816.48
1970-07-26,25821.0
1970-07-27,25818.68
1970-07-28,25807.43
1970-07-29,25807.43
1970-07-30,25789.33
1970-07-31,25798.38
1970-08-01,25805.11
1970-08-02,25805.11
1970-08-03,25807.43
1970-08-04,25800.58
1970-08-05,25796.06
1970-08-06,25784.8
1970-08-07,25775.76
1970-08-08,25771.23
1970-08-09,25755.45
1970-08-10,25735.04
1970-08-11,25723.78
1970-08-12,25708.0
1970-08-13,25692.11
1970-08-14,25674.12
1970-08-15,25674.12
1970-08-16,25676.33
1970-08-17,25665.07
1970-08-18,25649.18
1970-08-19,25628.88
1970-08-20,25599.52
1970-08-21,25572.38
1970-08-22,25549.76
1970-08-23,25538.5
1970-08-24,25511.35
1970-08-25,25482.0
1970-08-26,25470.63
1970-08-27,25454.85
1970-08-28,25425.5
1970-08-29,25427.71
1970-08-30,25432.23
1970-08-31,25432.23
1970-09-01,25414.13
1970-09-02,25414.13
1970-09-03,25393.83
1970-09-04,25384.78
1970-09-05,25384.78
1970-09-06,25414.13
1970-09-07,25432.23
1970-09-08,25432.23
1970-09-09,25427.71
1970-09-10,25414.13
1970-09-11,25400.56
1970-09-12,25389.3
1970-09-13,25391.62
1970-09-14,25389.3
1970-09-15,25380.26
1970-09-16,25369.0
1970-09-17,25362.16
1970-09-18,25359.95
1970-09-19,25344.06
1970-09-20,25350.9
1970-09-21,25341.85
1970-09-22,25341.85
1970-09-23,25319.23
1970-09-24,25294.4
1970-09-25,25265.05
1970-09-26,25235.7
1970-09-27,25219.8
1970-09-28,25192.66
1970-09-29,25161.1
1970-09-30,25129.43
1970-10-01,25111.33
1970-10-02,25088.71
1970-10-03,25086.5
1970-10-04,25077.45
1970-10-05,25068.4
1970-10-06,25079.66
1970-10-07,25086.5
1970-10-08,25088.71
1970-10-09,25093.23
1970-10-10,25102.28
1970-10-11,25118.06
1970-10-12,25133.95
1970-10-13,25147.52
1970-10-14,25152.05
1970-10-15,25167.83
1970-10-16,25179.08
1970-10-17,25190.45
1970-10-18,25201.71
1970-10-19,25215.28
1970-10-20,25224.33
1970-10-21,25233.38
1970-10-22,25249.16
1970-10-23,25253.68
1970-10-24,25256.0
1970-10-25,25256.0
1970-10-26,25256.0
1970-10-27,25249.16
1970-10-28,25242.43
1970-10-29,25235.7
1970-10-30,25233.38
1970-10-31,25233.38
1970-11-01,25228.85
1970-11-02,25228.85
1970-11-03,25228.85
1970-11-04,25226.65
1970-11-05,25224.33
1970-11-06,25224.33
1970-11-07,25228.85
1970-11-08,25226.54
1970-11-09,25219.8
1970-11-10,25222.12
1970-11-11,25215.28
1970-11-12,25213.07
1970-11-13,25210.76
1970-11-14,25210.76
1970-11-15,25208.55
1970-11-16,25219.8
1970-11-17,25222.12
1970-11-18,25231.06
1970-11-19,25213.07
1970-11-20,25206.23
1970-11-21,25201.71
1970-11-22,25197.18
1970-11-23,25188.13
1970-11-24,25183.61
1970-11-25,25179.08
1970-11-26,25174.56
1970-11-27,25176.88
1970-11-28,25170.04
1970-11-29,25165.62
1970-11-30,25167.83
1970-12-01,25161.1
1970-12-02,25152.05
1970-12-03,25143.0
1970-12-04,25143.0
1970-12-05,25136.16
1970-12-06,25131.63
1970-12-07,25127.11
1970-12-08,25122.58
1970-12-09,25120.38
1970-12-10,25122.58
1970-12-11,25113.54
1970-12-12,25104.6
1970-12-13,25093.23
1970-12-14,25081.98
1970-12-15,25066.2
1970-12-16,25043.57
1970-12-17,25039.05
1970-12-18,25022.11
1970-12-19,25008.78
1970-12-20,24998.17
1970-12-21,24982.25
1970-12-22,24961.03
1970-12-23,24934.51
1970-12-24,24918.72
1970-12-25,24908.11
1970-12-26,24905.39
1970-12-27,24892.19
1970-12-28,24878.87
1970-12-29,24862.95
1970-12-30,24841.86
1970-12-31,24831.25
1971-01-01,24828.53
1971-01-02,24828.53
1971-01-03,24817.92
1971-01-04,24786.22
1971-01-05,24767.59
1971-01-06,24746.5
1971-01-07,24725.28
1971-01-08,24701.34
1971-01-09,24704.06
1971-01-10,24701.34
1971-01-11,24701.34
1971-01-12,24701.34
1971-01-13,24704.06
1971-01-14,24701.34
1971-01-15,24706.64
1971-01-16,24701.34
1971-01-17,24722.56
1971-01-18,24762.28
1971-01-19,24794.11
1971-01-20,24825.94
1971-01-21,24857.78
1971-01-22,24886.89
1971-01-23,24897.5
1971-01-24,24908.11
1971-01-25,24913.42
1971-01-26,24921.31
1971-01-27,24924.03
1971-01-28,24937.22
1971-01-29,24953.14
1971-01-30,24969.06
1971-01-31,24998.17
1971-02-01,25034.52
1971-02-02,25063.88
1971-02-03,25097.76
1971-02-04,25113.54
1971-02-05,25120.38
1971-02-06,25127.11
1971-02-07,25124.9
1971-02-08,25115.85
1971-02-09,25124.9
1971-02-10,25143.0
1971-02-11,25147.52
1971-02-12,25152.05
1971-02-13,25167.83
1971-02-14,25172.35
1971-02-15,25185.93
1971-02-16,25199.5
1971-02-17,25215.28
1971-02-18,25233.38
1971-02-19,25246.95
1971-02-20,25258.21
1971-02-21,25260.52
1971-02-22,25262.73
1971-02-23,25271.78
1971-02-24,25276.3
1971-02-25,25283.04
1971-02-26,25274.1
1971-02-27,25274.1
1971-02-28,25276.3
1971-03-01,25271.78
1971-03-02,25271.78
1971-03-03,25271.78
1971-03-04,25283.04
1971-03-05,25287.56
1971-03-06,25292.08
1971-03-07,25294.4
1971-03-08,25301.13
1971-03-09,25307.98
1971-03-10,25314.71
1971-03-11,25321.55
1971-03-12,25332.8
1971-03-13,25341.85
1971-03-14,25350.9
1971-03-15,25359.95
1971-03-16,25373.52
1971-03-17,25384.78
1971-03-18,25398.35
1971-03-19,25396.04
1971-03-20,25407.4
1971-03-21,25418.66
1971-03-22,25432.23
1971-03-23,25452.54
1971-03-24,25486.52
1971-03-25,25545.23
1971-03-26,25624.35
1971-03-27,25685.38
1971-03-28,25750.93
1971-03-29,25802.9
1971-03-30,25836.78
1971-03-31,25870.66
1971-04-01,25902.33
1971-04-02,25938.52
1971-04-03,25958.83
1971-04-04,25976.93
1971-04-05,25985.98
1971-04-06,25992.71
1971-04-07,25997.23
1971-04-08,26008.6
1971-04-09,26015.33
1971-04-10,26033.43
1971-04-11,26058.26
1971-04-12,26083.08
1971-04-13,26096.66
1971-04-14,26105.71
1971-04-15,26126.12
1971-04-16,26126.12
1971-04-17,26137.38
1971-04-18,26178.1
1971-04-19,26221.02
1971-04-20,26254.9
1971-04-21,26311.4
1971-04-22,26388.21
1971-04-23,26447.02
1971-04-24,26521.62
1971-04-25,26596.11
1971-04-26,26652.61
1971-04-27,26691.12
1971-04-28,26727.21
1971-04-29,26786.02
1971-04-30,26824.43
1971-05-01,26874.08
1971-05-02,26923.85
1971-05-03,26966.78
1971-05-04,27027.8
1971-05-05,27075.26
1971-05-06,27136.28
1971-05-07,27183.73
1971-05-08,27262.85
1971-05-09,27334.52
1971-05-10,27405.26
1971-05-11,27462.83
1971-05-12,27541.51
1971-05-13,27638.48
1971-05-14,27738.01
1971-05-15,27850.59
1971-05-16,27989.52
1971-05-17,28112.59
1971-05-18,28269.81
1971-05-19,28406.06
1971-05-20,28558.04
1971-05-21,28704.77
1971-05-22,28841.02
1971-05-23,28961.53
1971-05-24,29079.48
1971-05-25,29179.01
1971-05-26,29278.54
1971-05-27,29401.74
1971-05-28,29530.05
1971-05-29,29663.74
1971-05-30,29831.32
1971-05-31,29989.0
1971-06-01,30100.19
1971-06-02,30231.05
1971-06-03,30366.97
1971-06-04,30497.83
1971-06-05,30633.63
1971-06-06,30754.72
1971-06-07,30878.22
1971-06-08,31011.61
1971-06-09,31130.17
1971-06-10,31246.19
1971-06-11,31377.17
1971-06-12,31505.61
1971-06-13,31631.52
1971-06-14,31767.44
1971-06-15,31893.36
1971-06-16,32034.22
1971-06-17,32182.33
1971-06-18,32338.03
1971-06-19,32496.77
1971-06-20,32666.15
1971-06-21,32826.7
1971-06-22,32987.38
1971-06-23,33147.93
1971-06-24,33288.08
1971-06-25,33439.93
1971-06-26,33600.47
1971-06-27,33761.15
1971-06-28,33904.16
1971-06-29,34061.85
1971-06-30,34234.23
1971-07-01,34409.31
1971-07-02,34564.15
1971-07-03,34704.31
1971-07-04,34838.62
1971-07-05,34958.38
1971-07-06,35101.39
1971-07-07,35206.47
1971-07-08,35306.57
1971-07-09,35388.57
1971-07-10,35470.57
1971-07-11,35513.17
1971-07-12,35542.64
1971-07-13,35562.34
1971-07-14,35562.34
1971-07-15,35549.2
1971-07-16,35549.2
1971-07-17,35542.64
1971-07-18,35542.64
1971-07-19,35542.64
1971-07-20,35539.43
1971-07-21,35546.0
1971-07-22,35555.77
1971-07-23,35591.8
1971-07-24,35647.7
1971-07-25,35706.64
1971-07-26,35749.24
1971-07-27,35798.57
1971-07-28,35841.17
1971-07-29,35860.87
1971-07-30,35890.34
1971-07-31,35900.27
1971-08-01,35913.24
1971-08-02,35926.37
1971-08-03,35929.73
1971-08-04,35932.94
1971-08-05,35926.37
1971-08-06,35916.6
1971-08-07,35919.8
1971-08-08,35916.6
1971-08-09,35903.47
1971-08-10,35900.27
1971-08-11,35906.83
1971-08-12,35887.13
1971-08-13,35874.0
1971-08-14,35857.5
1971-08-15,35844.37
1971-08-16,35831.24
1971-08-17,35814.9
1971-08-18,35795.2
1971-08-19,35782.07
1971-08-20,35765.73
1971-08-21,35746.04
1971-08-22,35726.34
1971-08-23,35703.43
1971-08-24,35683.73
1971-08-25,35660.83
1971-08-26,35631.2
1971-08-27,35614.87
1971-08-28,35601.73
1971-08-29,35575.47
1971-08-30,35552.57
1971-08-31,35519.73
1971-09-01,35503.24
1971-09-02,35477.13
1971-09-03,35447.5
1971-09-04,35421.24
1971-09-05,35401.7
1971-09-06,35372.07
1971-09-07,35362.3
1971-09-08,35345.8
1971-09-09,35322.9
1971-09-10,35297.01
1971-09-11,35273.62
1971-09-12,35250.38
1971-09-13,35221.15
1971-09-14,35200.62
1971-09-15,35174.39
1971-09-16,35154.0
1971-09-17,35127.62
1971-09-18,35101.39
1971-09-19,35075.15
1971-09-20,35072.16
1971-09-21,35048.78
1971-09-22,35034.23
1971-09-23,35022.54
1971-09-24,35008.0
1971-09-25,35005.15
1971-09-26,34993.31
1971-09-27,34967.08
1971-09-28,34943.7
1971-09-29,34935.0
1971-09-30,34914.47
1971-10-01,34920.31
1971-10-02,34908.62
1971-10-03,34899.93
1971-10-04,34891.23
1971-10-05,34879.54
1971-10-06,34864.85
1971-10-07,34856.15
1971-10-08,34844.46
1971-10-09,34832.77
1971-10-10,34826.93
1971-10-11,34812.38
1971-10-12,34797.7
1971-10-13,34780.16
1971-10-14,34759.77
1971-10-15,34739.38
1971-10-16,34730.54
1971-10-17,34730.54
1971-10-18,34727.69
1971-10-19,34718.85
1971-10-20,34710.15
1971-10-21,34710.15
1971-10-22,34698.46
1971-10-23,34692.62
1971-10-24,34686.77
1971-10-25,34686.77
1971-10-26,34683.78
1971-10-27,34683.78
1971-10-28,34683.78
1971-10-29,34672.23
1971-10-30,34651.7
1971-10-31,34645.85
1971-11-01,34628.46
1971-11-02,34605.07
1971-11-03,34578.7
1971-11-04,34552.46
1971-11-05,34526.23
1971-11-06,34497.0
1971-11-07,34491.15
1971-11-08,34476.47
1971-11-09,34458.93
1971-11-10,34441.54
1971-11-11,34421.01
1971-11-12,34409.31
1971-11-13,34383.08
1971-11-14,34365.54
1971-11-15,34342.16
1971-11-16,34321.77
1971-11-17,34292.54
1971-11-18,34263.31
1971-11-19,34219.54
1971-11-20,34196.16
1971-11-21,34169.93
1971-11-22,34132.0
1971-11-23,34093.93
1971-11-24,34073.54
1971-11-25,34050.16
1971-11-26,34023.93
1971-11-27,34000.54
1971-11-28,33965.47
1971-11-29,33930.54
1971-11-30,33904.16
1971-12-01,33877.93
1971-12-02,33837.01
1971-12-03,33804.93
1971-12-04,33761.15
1971-12-05,33717.38
1971-12-06,33679.46
1971-12-07,33641.39
1971-12-08,33606.31
1971-12-09,33565.54
1971-12-10,33524.62
1971-12-11,33486.69
1971-12-12,33448.77
1971-12-13,33407.85
1971-12-14,33369.92
1971-12-15,33334.85
1971-12-16,33290.93
1971-12-17,33250.15
1971-12-18,33223.78
1971-12-19,33191.7
1971-12-20,33153.77
1971-12-21,33121.69
1971-12-22,33089.47
1971-12-23,33095.31
1971-12-24,33083.62
1971-12-25,33080.77
1971-12-26,33077.92
1971-12-27,33069.08
1971-12-28,33054.54
1971-12-29,33019.46
1971-12-30,32993.23
1971-12-31,32966.85
1972-01-01,32961.01
1972-01-02,32958.15
1972-01-03,32934.77
1972-01-04,32896.85
1972-01-05,32855.93
1972-01-06,32815.15
1972-01-07,32785.78
1972-01-08,32756.69
1972-01-09,32756.69
1972-01-10,32750.85
1972-01-11,32712.78
1972-01-12,32674.85
1972-01-13,32645.62
1972-01-14,32616.54
1972-01-15,32601.85
1972-01-16,32601.85
1972-01-17,32581.46
1972-01-18,32563.93
1972-01-19,32531.85
1972-01-20,32511.31
1972-01-21,32482.23
1972-01-22,32473.39
1972-01-23,32473.39
1972-01-24,32455.85
1972-01-25,32432.47
1972-01-26,32409.23
1972-01-27,32403.38
1972-01-28,32380.0
1972-01-29,32355.28
1972-01-30,32335.5
1972-01-31,32325.61
1972-02-01,32300.88
1972-02-02,32276.28
1972-02-03,32251.56
1972-02-04,32234.19
1972-02-05,32214.53
1972-02-06,32204.64
1972-02-07,32192.22
1972-02-08,32167.61
1972-02-09,32147.83
1972-02-10,32125.52
1972-02-11,32093.44
1972-02-12,32063.89
1972-02-13,32044.11
1972-02-14,32019.39
1972-02-15,31987.19
1972-02-16,31962.58
1972-02-17,31935.33
1972-02-18,31913.14
1972-02-19,31900.83
1972-02-20,31900.83
1972-02-21,31895.89
1972-02-22,31878.52
1972-02-23,31863.69
1972-02-24,31848.97
1972-02-25,31839.08
1972-02-26,31816.77
1972-02-27,31819.31
1972-02-28,31806.88
1972-02-29,31792.05
1972-03-01,31782.28
1972-03-02,31764.91
1972-03-03,31762.5
1972-03-04,31774.8
1972-03-05,31784.69
1972-03-06,31799.53
1972-03-07,31814.36
1972-03-08,31836.55
1972-03-09,31846.44
1972-03-10,31856.33
1972-03-11,31876.11
1972-03-12,31900.83
1972-03-13,31918.08
1972-03-14,31935.33
1972-03-15,31950.16
1972-03-16,31965.0
1972-03-17,31997.08
1972-03-18,32043.99
1972-03-19,32071.25
1972-03-20,32103.33
1972-03-21,32133.0